Regional Weather Roundup
Issued by NWS

Home | Current Version | Previous Version | Text Only | Print | Product List | Glossary On
Versions: 1 2 3 4 5 6 7 8 9 10 11 12 13 14 15 16 17 18 19 20 21 22 23 24 25 26 27 28 29 30 31 32 33 34 35 36 37 38 39 40 41 42 43 44 45 46 47 48 49 50
000
ASUS43 KDMX 102103
RWRIA

WEATHER ROUNDUP FOR IOWA
NATIONAL WEATHER SERVICE DES MOINES IA
300 PM CST WED FEB 10 2016

NOTE: "FAIR" INDICATES FEW OR NO CLOUDS BELOW 12,000 FEET WITH NO
SIGNIFICANT WEATHER AND/OR OBSTRUCTIONS TO VISIBILITY.

* - THESE STATIONS ARE NOT NWS STATIONS...THUS NOT UNDER NWS
QUALITY CONTROL.  THEY ALSO DO NOT REPORT WEATHER SUCH
AS PRECIPITATION OR FOG.

IAZ001>003-012>014-020>022-031>034-043>046-102200-
   NORTHWEST IOWA

CITY           SKY/WX    TMP DP  RH WIND       PRES   REMARKS
CARROLL *      CLOUDY    18  14  86 E13       30.00R WCI   4
CHEROKEE *     CLOUDY    18  14  86 E16       29.99F WCI   3
DENISON *      CLOUDY    19  18  93 E15       29.95R WCI   5
LE MARS *      CLOUDY    21  18  86 E16G23    29.98R WCI   7
ORANGE CITY *  CLOUDY    18  16  93 E13       29.97R WCI   4
SHELDON *      LGT SNOW  14  12  92 E20       29.97S WCI  -3
SIOUX CITY     PTSUNNY   26  19  74 E15       29.95R WCI  14
SPENCER        CLOUDY    14   8  77 E12       30.01S WCI   0
STORM LAKE *   PTSUNNY   16  14  93 E16       29.98S WCI   0
$$

IAZ055>058-069>071-079>083-090>094-102200-
   SOUTHWEST IOWA

CITY           SKY/WX    TMP DP  RH WIND       PRES   REMARKS
ATLANTIC *     PTSUNNY   30  23  74 E13       29.95R WCI  20
AUDUBON *      MOSUNNY   23  18  80 E9        29.97R WCI  13
CLARINDA *     SUNNY     39  23  52 SE6G12    29.94S WCI  35
COUNCIL BLFS * SUNNY     36  23  60 SE7       29.92R WCI  30
CRESTON *      CLOUDY    27  21  80 SE13      29.96S WCI  16
HARLAN  *      MOSUNNY   30  23  74 E9        29.97S WCI  22
LAMONI         CLOUDY    26  20  77 E8        29.97S WCI  18
RED OAK *      SUNNY     37  23  56 SE7       29.92S WCI  32
SHENANDOAH *   SUNNY     41  23  48 CALM      29.92S
$$

IAZ047>049-059>061-072>074-084-102200-
   CENTRAL IOWA

CITY           SKY/WX    TMP DP  RH WIND       PRES   REMARKS
AMES           CLOUDY    15  10  80 E9        30.04F WCI   3
ANKENY *       CLOUDY    18  12  79 E10       30.05R WCI   6
BOONE *        CLOUDY    14  10  85 E14       30.02R WCI  -1
CHARITON *     CLOUDY    21  16  79 E10       30.01S WCI  10
DES MOINES     CLOUDY    19  12  74 E10       30.03S WCI   7
GRINNELL*      CLOUDY    16  10  79 E7        30.06R WCI   6
KNOXVILLE *    CLOUDY    18  12  79 E8        30.03S WCI   7
MARSHALLTOWN   CLOUDY    13   7  77 E6        30.05S WCI   4
NEWTON *       CLOUDY    18  12  79 NE8       30.05R WCI   7
PELLA *        CLOUDY    19  13  74 E6        30.07R WCI  11
$$

IAZ004>006-015-016-023>025-035-036-102200-
   NORTH CENTRAL IOWA

CITY           SKY/WX    TMP DP  RH WIND       PRES   REMARKS
ALGONA *       CLOUDY    14   9  79 E10       30.04R WCI   1
CLARION *      CLOUDY    12   5  73 E12       30.04S WCI  -2
ESTHERVILLE    CLOUDY    11   6  81 E13       30.03R WCI  -4
FORT DODGE *   CLOUDY    14   7  73 E13       30.04R WCI   0
MASON CITY     CLOUDY    12   1  61 NE5       30.07R WCI   4
FOREST CITY *    N/A     12   3  67 NE6       30.05R WCI   3
WEBSTER CITY * CLOUDY    14   9  79 E10       30.02S WCI   1
IOWA FALLS *   FLURRIES  14   7  73 NE5       30.05S WCI   6
$$

IAZ007>011-017>019-026>030-037>042-050>054-066-102200-
   NORTHEAST IOWA

CITY           SKY/WX    TMP DP  RH WIND       PRES   REMARKS
CEDAR RAPIDS   CLOUDY    16   4  59 N7        30.05S WCI   6
CHARLES CITY * CLOUDY    12  -2  52 N7        30.06R WCI   2
CLINTON *      MOSUNNY   18   5  57 NW7       30.06S WCI   9
DECORAH *      CLOUDY    10  -4  52 NW8       30.03S WCI  -1
DUBUQUE        CLOUDY    14   1  56 W9        30.03S WCI   2
MONTICELLO *   CLOUDY    16   0  48 N5        30.05F WCI   9
OELWEIN *      CLOUDY    12   0  57 NW5       30.05S WCI   4
WATERLOO       CLOUDY    14   1  56 CALM      30.06S
$$

IAZ064-065-067-068-078-102200-
   EAST CENTRAL IOWA

CITY           SKY/WX    TMP DP  RH WIND       PRES   REMARKS
DAVENPORT      MOSUNNY   18   2  49 NW9       30.06S WCI   7
IOWA CITY      CLOUDY    18   2  49 N6        30.09S WCI  10
MT. PLEASANT * LGT SNOW  21  14  73 CALM      30.08R
MUSCATINE *    CLOUDY    19   3  49 NW6       30.09S WCI  11
QUAD CITIES    CLOUDY    19   2  47 NW9       30.07S WCI   8
$$

IAZ062-063-075>077-085>089-095>099-102200-
   SOUTHEAST IOWA

CITY           SKY/WX    TMP DP  RH WIND       PRES   REMARKS
BURLINGTON     LGT SNOW  18  13  80 NW3       30.07F
FAIRFIELD *    FLURRIES  18  10  73 CALM      30.07S
FORT MADISON * LGT SNOW  18  12  79 CALM      30.08S
KEOKUK *       LGT SNOW  19  14  79 CALM      30.08S
OSKALOOSA *    CLOUDY    19  14  79 E5        30.06S WCI  13
OTTUMWA        CLOUDY    18  13  80 E7        30.06S WCI   9
WASHINGTON *   FLURRIES  18  10  73 NW5       30.08S WCI  11
$$

ABBREVIATIONS USED IN REMARKS
   TC - TEMPERATURES IN CELSIUS
  WCI - WIND CHILL INDEX
   HX - HEAT INDEX
  VSB - VISIBILITY
$$




USA.gov is the U.S. government's official web portal to all federal, state and local government web resources and services.